Voltar ao catálogo

OPS 4682 DEB

AtivoPO
NORAD 19664·DEBRIS·🇺🇸 United States

Lançado Apr 3, 1965 de Vandenberg Space Force Base

Loading…

Próximas Passagens (próximas 24 horas)

TLE

AtualizadoSource: Space-Track

Época: Sep 14, 2026, 05:56 UTC

1 19664U 65027AX  26257.24764766 -.00000197  00000-0 -64056-3 0  9993
2 19664  90.2286 359.7671 0022296 306.6654  81.3210 13.03944864 68140

Acompanhe OPS 4682 DEB em tempo real com AllMySat

Download on the App Store